DELTA 1 DEB, 21295

Orbit data source: Space-Track

DELTA 1 DEB, 21295 is space debris in SSO originally from a launch on Thu, 12 Jun 1975 UTC launched from the Air Force Western Test Range (AFWTR). Debris objects in space refer to the collection of defunct objects orbiting the Earth. Examples of debris include non-operational satellites, rocket bodies, and fragments generated from explosions, collisions, or faulty payload assembly.

Loading next visibility...
Identifier
21295, 1975-052AG
Orbit
SSO
Last TLE update
15 hours ago
Origin
Manufacturer
Unknown
Mission
Spacecraft
Bus & Motor
Unknown
Mass
Unknown
Launch date (UTC)
1975-06-12 (50 years ago)
Launch vehicle
Unknown
Launch site
Air Force Western Test Range (AFWTR)
Object type
Payload
Rocket body
Debris
Shape & HBR
Unknown
Radar Cross Section
Small (<0.1 m²)

Expand to show TLE details & history

TLE from 15 hours ago
0 DELTA 1 DEB
1 21295U 75052AG  25181.50397189  .00000095  00000-0  24244-3 0  9990
2 21295  99.7442  15.1879 0020739  96.9334 292.1842 13.42813637670562
Epoch: 2025-06-30T12:05Z
TLE epoch observation values (Epoch: 2025-06-30T12:05:43.171Z)
Latitude
28.48629°
Longitude
-90.37431°
Altitude
1,096.384 km
Speed
7.309 km/s
True Right ascension
00h 39m 28s
True Declination
28° 20' 56"
Sunlit
Object was in daylight at epoch
Visualization orbit readout
Latitude
66.44913°
Longitude
-107.54849°
Altitude
1,096.407 km
Speed
7.317 km/s
Apparent Right ascension
01h 12m 14s
Apparent Declination
20° 21' 35"
Sunlit
Object is in daylight
Visualization observer readout
Local Sidereal Time
14:12:56
Azimuth
16.152° NNE
Elevation
-28.083°
Doppler factor
1
Orbital elements
Apogee altitude
1,111.631 km
Perigee altitude
1,080.629 km
Semi-major axis
7,474.267 km
Eccentricity
0.00207
Inclination
99.7442°
RAAN
15.1879°
Arg. of periapsis
96.9334°
True anomaly
Unknown
Mean anomaly
292.1842°
Eccentric anomaly
Unknown
Mean motion
3.35885 °/min
Orbital period
107.18 mins
BSTAR
0.00024244
Loading maneuver chart data...
Loading SW <> Apogee altitude chart data...
Loading historical data...
Loading historical data...
Loading historical data...
Loading historical data...
Loading historical data...
Loading historical data...
Loading historical data...

DELTA 1 DEB Visibility forecast

Observer location: undefined°, undefined°

Span
Click to sort rows by Start time (UTC) header in descending order
Start Az.
Max El. time (UTC)
Max El. Az.
Max El.
End time (UTC)
End Az.
10 mins2025-07-01 02:50:46.939Z353.775° N2025-07-01 02:55:46.939Z294.246° NW30.196°2025-07-01 03:00:46.939Z235.962° WSW
7 mins2025-07-01 11:22:46.939Z94.581° ESE2025-07-01 11:25:46.939Z61.582° ENE20.485°2025-07-01 11:29:46.939Z19.055° NNE
11 mins2025-07-01 13:05:46.939Z176.688° S2025-07-01 13:10:46.939Z242.949° WSW42.622°2025-07-01 13:16:46.939Z338.481° N
6 mins2025-07-02 00:22:46.939Z66.153° ENE2025-07-02 00:24:46.939Z86.932° E16.801°2025-07-02 00:28:46.939Z126.887° SE
11 mins2025-07-02 02:06:46.939Z8.871° NNE2025-07-02 02:11:46.939Z262.124° W43.64°2025-07-02 02:17:46.939Z204.689° SW
|